Simultaneous Nadir Overpasses (SNOs) Predictions

Prediction of SNOs between METOP-A and NOAA-19 Satellite Orbit:

Table of predicted SNOs for the next 14.0 days since TLE Epoch: 11/30/2013
Index Date (METOP-A) Time (METOP-A) Lat,Lon (METOP-A) SZA (METOP-A ) Date (NOAA-19) Time (NOAA-19) Lat,Lon (NOAA-19) SZA (NOAA-19 ) Distance(km) Time Diff (sec)
1 12/06/2013 21:04:32 -74.19, 38.69 83.31 12/06/2013 21:03:23 -74.20, 36.57 83.24 64.31 69
2 12/06/2013 21:55:20 73.77,-155.00 96.30 12/06/2013 21:54:13 73.76,-155.07 96.30 2.22 67
3 12/06/2013 22:46:03 -73.72, 12.21 83.75 12/06/2013 22:45:17 -73.71, 12.30 83.76 2.71 46
4 12/06/2013 23:36:43 73.69, 179.49 96.24 12/06/2013 23:36:16 73.71, 179.56 96.25 2.62 27
5 12/07/2013 00:27:25 -73.69, -13.18 83.76 12/07/2013 00:27:21 -73.70, -13.20 83.76 1.07 4
6
